Date,TemperatureHighF,TemperatureAvgF,TemperatureLowF,DewpointHighF,DewpointAvgF,DewpointLowF,HumidityHigh,HumidityAvg,HumidityLow,PressureMaxIn,PressureMinIn,WindSpeedMaxMPH,WindSpeedAvgMPH,GustSpeedMaxMPH,PrecipitationSumIn
2013-10-1,58.8,52.3,47.5,51.3,47.9,46.0,97,85,67,30.09,29.89,12,1,16,0.17
2013-10-2,54.7,50.3,46.8,50.7,48.5,46.2,99,93,83,30.18,30.04,9,1,10,0.36
2013-10-3,55.2,49.5,45.1,51.1,48.1,44.8,99,95,78,30.45,30.18,9,1,9,0.38
2013-10-4,55.9,48.6,42.3,51.6,47.0,42.1,99,94,77,30.48,30.35,5,1,6,0.01
2013-10-5,64.8,52.2,44.8,54.7,48.6,44.6,100,88,57,30.35,30.13,6,1,7,0.00
2013-10-6,72.9,56.5,44.4,54.5,48.1,40.6,99,77,35,30.13,29.86,8,1,13,0.05
2013-10-7,64.4,55.3,49.5,53.1,51.1,47.8,95,86,64,30.00,29.86,17,1,18,0.01
2013-10-8,56.5,50.3,45.9,51.3,46.8,42.3,98,88,66,30.07,29.96,14,1,15,0.12
2013-10-9,55.8,48.7,43.2,49.6,45.9,42.4,98,90,79,30.13,29.95,6,1,7,0.00
2013-10-10,56.1,50.5,46.8,51.1,48.2,45.7,98,92,81,30.07,29.93,7,1,7,0.00
2013-10-11,54.0,50.5,47.5,50.4,48.5,46.8,97,93,84,30.14,30.06,6,1,6,0.00
2013-10-12,57.0,50.1,45.9,50.7,47.8,44.4,98,92,74,30.22,30.06,11,1,15,0.10
2013-10-13,54.7,47.5,41.7,50.0,45.7,41.5,99,94,82,30.36,30.21,11,2,11,0.00
2013-10-14,57.9,48.0,42.1,49.6,45.4,41.7,99,91,66,30.43,30.36,12,2,12,0.01
2013-10-15,52.9,47.4,42.4,50.2,46.2,41.9,99,95,90,30.38,30.17,6,1,7,0.01
2013-10-16,57.0,49.8,45.3,51.1,48.0,44.6,99,94,79,30.20,30.14,12,1,13,0.00
2013-10-17,56.1,49.3,44.8,51.3,47.7,44.4,99,94,79,30.27,30.20,10,1,13,0.01
2013-10-18,54.0,47.0,43.9,49.8,46.2,43.5,99,97,85,30.25,30.15,9,1,10,0.01
2013-10-19,48.6,45.9,42.3,47.8,45.5,42.1,100,98,96,30.19,30.14,7,1,9,0.01
2013-10-20,49.5,48.0,46.9,47.8,47.0,46.2,98,96,94,30.21,30.15,8,1,10,0.00
2013-10-21,50.4,47.9,46.6,48.9,47.3,46.4,99,98,94,30.17,30.10,10,1,10,0.00
2013-10-22,52.3,48.0,46.0,50.0,47.4,45.5,99,98,92,30.12,30.04,10,2,11,0.00
2013-10-23,51.3,46.8,44.6,49.5,46.6,44.6,100,99,93,30.05,29.98,9,1,10,0.00
2013-10-24,49.1,46.3,42.1,48.9,46.1,42.1,100,99,97,30.12,30.02,7,1,7,0.01
2013-10-25,52.0,48.5,45.1,49.8,47.9,45.0,99,97,91,30.32,30.12,8,1,8,0.04
2013-10-26,55.4,50.0,45.0,50.7,47.7,44.8,100,92,79,30.33,30.19,11,1,14,0.00
2013-10-27,59.0,52.1,47.1,50.0,45.8,39.7,98,81,57,30.19,29.88,20,2,23,0.14
2013-10-28,57.0,53.5,46.9,40.3,34.2,30.0,60,48,37,29.94,29.88,20,4,22,0.00
2013-10-29,54.0,45.2,37.9,45.7,39.2,31.3,97,80,56,30.03,29.94,6,1,6,0.00
2013-10-30,54.9,47.8,39.6,48.6,43.6,38.8,99,86,73,30.11,30.02,20,1,20,0.00
2013-10-31,54.7,51.2,49.6,51.3,48.4,45.1,96,90,84,30.25,30.06,19,1,19,0.00